Showing default

POLAR BEAR, 17070

Orbit data source: Space-Track

POLAR BEAR, 17070 is an American payload satellite in LEO that was launched on Fri, 14 Nov 1986 UTC via an SCOUT G-1 launch vehicle from the Air Force Western Test Range (AFWTR). Payloads include a variety of satellites, spacecraft, and rockets equipped with specific instruments for various scientific and technological missions. These include communications satellites like Starlink; space stations such as the ISS; scientific satellites like the Hubble; Earth observation satellites from companies like Planet Labs, Umbra, and HawkEye 360; GPS; miniature CubeSats for education and research; and military/defense satellites.

Loading next visibility...
POLAR BEAR details
Identifier
17070, 1986-088A
Orbit
LEO
Last TLE update8 hours ago
Origin
Flag of USSTP/APL (US)
ManufacturerAPL
MissionCivil Science
Bus & MotorTRANSIT 5, Unknown motor
Mass114 kg wet, 114 kg dry
Launch date (UTC)
1986-11-14 (38 years ago)
Launch vehicle
SCOUT G-1
Launch site
Air Force Western Test Range (AFWTR)
Object type
Payload
Rocket body
Debris
Shape & HBROct Cyl + 4 Pan + 1 Ant, Unknown HBR
Radar Cross Section0.163 m², Large (>1 m²)

Expand to show TLE details & history

TLE from 8 hours ago
0 POLAR BEAR
1 17070U 86088A   24361.54354384  .00000230  00000-0  22693-3 0  9997
2 17070  89.6088 197.8492 0041250  99.6482 322.9184 13.75150469911524
Epoch: 2024-12-26T13:02Z
Definitive object data (Epoch: 2024-12-26T13:02:42.187Z)
Latitude62.36582°
Longitude-92.60465°
Altitude967.749 km
Speed7.386 km/s
True Right ascension13h 14m 22s
True Declination62° 13' 42"
Sunlit
Object was in daylight at TLE epoch
Visualization TLE readout
Latitude-86.92669°
Longitude93.90652°
Altitude1,039.67 km
Speed7.316 km/s
Apparent Right ascension08h 05m 37s
Apparent Declination-67° 06' 09"
Sunlit
Object is in daylight
Visualization observer readout
Local Sidereal Time20:24:11
Azimuth176.065° S
Elevation-62.691°
Doppler factor1
Orbital elements
Apogee altitude1,008.496 km
Perigee altitude947.807 km
Semi-major axis7,356.288 km
Eccentricity0.004125
Inclination89.6088°
RAAN197.8492°
Arg. of periapsis99.6482°
True anomaly322.63221°
Mean anomaly322.9184°
Eccentric anomaly322.77543°
Mean motion3.43997 °/min
BSTAR0.00022693
Orbital period104.65 mins
Loading maneuver chart data...
Loading historical data...
Loading historical data...
Loading historical data...
Loading historical data...
Loading historical data...
Loading historical data...
Loading historical data...

POLAR BEAR Visibility forecast

Observer location: undefined°, undefined

Span
Click to sort rows by Start time (UTC) header in descending order
Start Az.
Max El. time (UTC)
Max El. Az.
Max El.
End time (UTC)
End Az.
11 mins2024-12-27 01:33:16.427Z4.847° NNE2024-12-27 01:38:16.427Z50.314° ENE44.048°2024-12-27 01:44:16.427Z178.064° S
4 mins2024-12-27 03:21:16.427Z301.112° NW2024-12-27 03:22:16.427Z290.275° WNW13.863°2024-12-27 03:25:16.427Z259.758° W
10 mins2024-12-27 13:18:16.427Z158.474° S2024-12-27 13:23:16.427Z82.323° E40.387°2024-12-27 13:28:16.427Z8.583° NNE
7 mins2024-12-27 15:05:16.427Z246.498° WSW2024-12-27 15:08:16.427Z281.117° WNW18.487°2024-12-27 15:12:16.427Z323.881° NNW
|